Location: Binningen
(47.7924°N, 8.7261°E)
Time: 21:30:54
(UTC+00:00)

SL-16 R/B - Pass Details

Date: 17 May 2021
Orbit: 984 x 1007 km, 99.5° (Epoch: 23 June)

Event Time Altitude Azimuth Distance (km) Brightness Sun altitude
Exits shadow 23:34:51 - 116° (ESE) 3,144 4.9 -22.6°
Reaches altitude 10° 23:36:00 10° 111° (ESE) 2,782 4.7 -22.6°
Maximum altitude 23:41:01 26° 57° (ENE) 1,855 4.3 -22.5°
Drops below altitude 10° 23:46:03 10° 4° (N) 2,786 6.0 -22.4°
Sets 23:48:55 0° 352° (N) 3,737 6.9 -22.4°
